Regional Weather Roundup
Issued by NWS

Home | Current Version | Previous Version | Graphics & Text | Print | Product List | Glossary On
Versions: 1 2 3 4 5 6 7 8 9 10 11 12 13 14 15 16 17 18 19 20 21 22 23 24 25 26 27 28 29 30 31 32 33 34 35 36 37 38 39 40 41 42 43 44 45 46 47 48 49 50
000
ASUS45 KTFX 011604
RWRMT
MONTANA HOURLY WEATHER ROUNDUP
NATIONAL WEATHER SERVICE GREAT FALLS MT
1004 AM MDT WED OCT 1 2014

NOTE: "FAIR" INDICATES FEW OR NO CLOUDS BELOW 12000 FEET WITH NO
SIGNIFICANT WEATHER AND/OR OBSTRUCTIONS TO VISIBILITY.

* THESE STATIONS ARE NOT UNDER NWS QUALITY CONTROL. THEY DO NOT
   REPORT WEATHER SUCH AS PRECIPITATION OR FOG.

MTZ001>007-043-011700-
WEST OF THE DIVIDE
CITY           SKY/WX    TMP DP  RH WIND       PRES   REMARKS
KALISPELL      PTSUNNY   43  39  86 CALM      30.05R
MISSOULA       CLOUDY    46  41  83 CALM      30.10R
BUTTE          PTSUNNY   41  34  76 N5        30.08R
MULLAN PASS    FOG       34  34 100 VRB3      30.09R VSB M1/4
* ESSEX        N/A       42  41  96 E1         N/A
* LINCOLN      N/A       43  36  76 SW4G9      N/A
* LOOKOUT PASS N/A       38  35  89 N5         N/A   WCI  34
* POLSON       N/A       43  39  86 S1         N/A
* RONAN APT    SUNNY     46  41  83 N/A        N/A
* SEELEY LAKE  N/A       39  38  96 NE1        N/A
* THOMP F APT  SUNNY     37  27  67 NW2G18     N/A
* YAAK HILL    N/A       39  37  93 SE2        N/A
$$

MTZ008-052>055-011700-
SOUTHWEST MONTANA
CITY           SKY/WX    TMP DP  RH WIND       PRES   REMARKS
BOZEMAN        LGT RAIN  43  36  76 CALM      30.06R
DILLON         CLOUDY    45  30  56 CALM      30.07R
W YELLOWSTONE  CLOUDY    37  32  82 CALM      30.06R
* THREE FORKS  PTSUNNY   46  21  37 N/A        N/A
* BOULDER HILL N/A       40  29  65 E2         N/A
* MONIDA PASS  N/A       37  28  70 NW18G24    N/A   WCI  27
* RAYNOLDS PAS N/A       34 -13  12 N6         N/A   WCI  29
* WHITEHALL    N/A       44  34  68 W6G14      N/A
* WISE RIVER   N/A       43  30  60 NW9        N/A
$$

MTZ009>010-012-014-046-048-049-054-011700-
EAST SLOPES AND CENTRAL MONTANA
CITY           SKY/WX    TMP DP  RH WIND       PRES   REMARKS
CUT BANK       SUNNY     50  37  61 W20       29.95S
GREAT FALLS    PTCLDY    48  41  77 SW14      29.98R
HELENA         CLOUDY    48  37  66 W13       30.03S
MALMSTROM AFB  PTSUNNY   50  41  71 W10       30.00R
* CONRAD       SUNNY     48  43  83 N/A        N/A
* DEARBORN     N/A       47  42  83 S2         N/A
* EAST GLACIER N/A       44  34  68 W16        N/A
* MONARCH      N/A       39  34  82 SW6        N/A   WCI  35
* PENDROY      N/A       50  31  48 W15        N/A
* ROGERS PASS  N/A       38  34  86 SE8G17     N/A   WCI  32
* SAINT MARY   N/A       44  38  80 S8G20      N/A
* SWEET GRASS  N/A       47  36  66 SW8        N/A
$$

MTZ011-013-016-021-035-040-045-047-050-051-011700-
NORTH CENTRAL MONTANA
CITY           SKY/WX    TMP DP  RH WIND       PRES   REMARKS
HAVRE          PTCLDY    50  39  66 W16       29.92S
LEWISTOWN      PTSUNNY   50  39  66 NW15G23   29.96R
* CHESTER      N/A       45  36  71 NW3        N/A
* DENTON       N/A       48  39  71 W11        N/A
* JUDITH GAP   N/A       47  33  58 NW17G23    N/A
* LOMA         N/A       50  39  66 W11        N/A
$$

MTZ017>020-022>027-061-062-011700-
NORTHEAST MONTANA
CITY           SKY/WX    TMP DP  RH WIND       PRES   REMARKS
GLASGOW        PTSUNNY   52  43  72 NW23      29.81R
GLENDIVE       CLOUDY    50  45  83 W20G28    29.81R
JORDAN         PTCLDY    54  43  67 W20G26    29.86R
SIDNEY         PTSUNNY   54  46  74 W18G26    29.75R
WOLF POINT     CLOUDY    55  45  69 W21G32    29.77R
* BEAVER HILL  N/A       49  45  86 W16G24     N/A
* CIRCLE       N/A       48  46  93 W10G16     N/A
* LINDSAY DVD  N/A       46  44  93 W24G32     N/A
* NAVAJO       N/A       49  46  89 NW20G29    N/A
$$

MTZ028>042-056>058-011700-
SOUTHCENTRAL AND SOUTHEAST MONTANA
CITY           SKY/WX    TMP DP  RH WIND       PRES   REMARKS
BAKER          CLOUDY    46  45  96 W21G26    29.83R
BILLINGS       PTSUNNY   50  36  59 W12       29.97R
LIVINGSTON     CLOUDY    46  34  63 W18       30.01R
MILES CITY     CLOUDY    54  39  57 NW20G25   29.87R
* LAUREL APT   PTSUNNY   50  34  54 N/A        N/A
* ROUNDUP APT  PTCLDY    50  36  59 SW9        N/A
* ALZADA       N/A       48  42  80 W11G19     N/A
* HYSHAM       N/A       51  35  54 W10G19     N/A
* LAME DEER    N/A       45  38  77 NW12G25    N/A
* REED POINT   N/A       52  32  47 W14G19     N/A
* ROSCOE HILL  N/A       46  20  36 W5         N/A
$$

REGIONAL REPORTS...DAKOTAS
CITY           SKY/WX    TMP DP  RH WIND       PRES   REMARKS
WILLISTON      FOG       52  48  86 W16G25    29.69R
DICKINSON      CLOUDY    52  46  80 W25G32    29.73R
BEACH          N/A       48  48 100 W25G31    29.79R
CROSBY         N/A       54  54 100 NW17G26   29.63R
TIOGA          CLOUDY    52  52 100 NW21G31   29.67R
WATFORD CITY   CLOUDY    52  50  93 W15G24    29.68R
BISMARCK       CLOUDY    59  48  67 W21G29    29.70R
GRAND FORKS    PTSUNNY   64  54  70 SW16G22   29.58S
FARGO          PTCLDY    64  54  70 S15       29.65S
BUFFALO SD     PTCLDY    50  45  83 W24G31    29.78R
RAPID CITY     CLOUDY    57  46  67 N14       29.85R
$$

REGIONAL REPORTS...WYOMING/IDAHO/WASHINGTON
CITY           SKY/WX    TMP DP  RH WIND       PRES   REMARKS
GILLETTE       CLOUDY    46  39  77 NW13      29.93R
SHERIDAN       LGT RAIN  46  43  89 NW9       29.97R
CODY           CLOUDY    41  37  86 N3        29.99R
YELLOWSTONE LA PTCLDY    34  27  76 CALM      30.06R
SALMON         CLOUDY    46  39  77 CALM      30.11S
MULLAN PASS    FOG       34  34 100 VRB3      30.09S VSB M1/4
SAND POINT     PTSUNNY   41  41 100 SW7       30.11R
SPOKANE        PTCLDY    43  36  76 S9        30.11S
$$

REGIONAL REPORTS...SASKATCHEWAN
CITY           SKY/WX    TMP DP  RH WIND       PRES   REMARKS
SWIFT CURRENT  CLOUDY    45  43  93 W18G25    29.77R

$$




USA.gov is the U.S. government's official web portal to all federal, state and local government web resources and services.